TimeCST,TemperatureF,Dew PointF,Humidity,Sea Level PressureIn,VisibilityMPH,Wind Direction,Wind SpeedMPH,Gust SpeedMPH,PrecipitationIn,Events,Conditions,WindDirDegrees,DateUTC
12:00 AM,66,66,99,29.92,4,Calm,Calm,,,,Mist,,2013-11-27 06:00:00
12:00 AM,66.2,66.2,100,-9999,3.7,Calm,Calm,-,N/A,,Mostly Cloudy,0,2013-11-27 06:00:00
6:00 AM,64,64,100,29.92,6,North,2.3,,,,Mist,0,2013-11-27 12:00:00
6:00 AM,64.4,64.4,100,-9999,6.2,North,2.3,-,N/A,,Scattered Clouds,360,2013-11-27 12:00:00
8:00 AM,64.4,64.4,100,-9999,3.1,North,3.5,-,N/A,,Light Drizzle,360,2013-11-27 14:00:00
9:00 AM,,,,,4,North,3.5,,,,Overcast,0,2013-11-27 15:00:00
9:00 AM,64.4,64.4,100,-9999,3.7,North,3.5,-,N/A,,Overcast,360,2013-11-27 15:00:00
10:00 AM,66.2,64.4,94,-9999,6.2,NE,4.6,-,N/A,,Overcast,40,2013-11-27 16:00:00
11:00 AM,62.6,62.6,100,-9999,1.2,North,6.9,-,N/A,,Drizzle,360,2013-11-27 17:00:00
12:00 PM,62,61,95,30.03,1,NNE,2.3,,,Rain,Drizzle,20,2013-11-27 18:00:00
12:00 PM,60.8,60.8,100,-9999,1.2,NNE,2.3,-,N/A,,Drizzle,20,2013-11-27 18:00:00
1:00 PM,62.6,60.8,94,-9999,5.0,North,2.3,-,N/A,,Light Drizzle,360,2013-11-27 19:00:00
2:00 PM,60.8,60.8,100,-9999,3.7,NW,6.9,-,N/A,,Light Drizzle,320,2013-11-27 20:00:00
3:00 PM,59,58,96,30.04,2,North,9.2,,,Rain,Light Drizzle,0,2013-11-27 21:00:00
3:00 PM,59.0,59.0,100,-9999,1.9,North,9.2,-,N/A,,Drizzle,360,2013-11-27 21:00:00
4:00 PM,57.2,57.2,100,-9999,3.1,NW,6.9,-,N/A,,Drizzle,320,2013-11-27 22:00:00
5:00 PM,57.2,57.2,100,-9999,2.5,Calm,Calm,-,N/A,,Drizzle,0,2013-11-27 23:00:00
8:00 PM,57.2,57.2,100,-9999,1.2,Calm,Calm,-,N/A,,Drizzle,0,2013-11-28 02:00:00
9:00 PM,56,56,100,30.15,4,North,6.9,,,Rain,Light Drizzle,0,2013-11-28 03:00:00
9:00 PM,57.2,57.2,100,-9999,3.7,North,6.9,-,N/A,,Light Drizzle,360,2013-11-28 03:00:00